TimeEST,TemperatureF,Dew PointF,Humidity,Sea Level PressureIn,VisibilityMPH,Wind Direction,Wind SpeedMPH,Gust SpeedMPH,PrecipitationIn,Events,Conditions,WindDirDegrees,DateUTC
12:15 AM,21.2,17.6,86,29.64,10.0,Calm,Calm,-,N/A,,Overcast,0,2014-02-15 05:15:00
12:35 AM,21.2,17.6,86,29.64,10.0,WSW,3.5,-,N/A,,Overcast,250,2014-02-15 05:35:00
12:55 AM,21.2,17.6,86,29.64,10.0,Calm,Calm,-,N/A,,Overcast,0,2014-02-15 05:55:00
1:15 AM,21.2,15.8,80,29.65,10.0,Calm,Calm,-,N/A,,Overcast,0,2014-02-15 06:15:00
1:35 AM,21.2,15.8,80,29.64,10.0,Calm,Calm,-,N/A,,Overcast,0,2014-02-15 06:35:00
1:55 AM,21.2,15.8,80,29.64,10.0,Calm,Calm,-,N/A,,Overcast,0,2014-02-15 06:55:00
2:15 AM,21.2,15.8,80,29.64,10.0,Calm,Calm,-,N/A,,Overcast,0,2014-02-15 07:15:00
2:35 AM,21.2,15.8,80,29.64,10.0,Calm,Calm,-,N/A,,Overcast,0,2014-02-15 07:35:00
2:55 AM,21.2,15.8,80,29.63,10.0,Calm,Calm,-,N/A,,Overcast,0,2014-02-15 07:55:00
3:15 AM,21.2,15.8,80,29.63,10.0,Calm,Calm,-,N/A,,Overcast,0,2014-02-15 08:15:00
3:35 AM,19.4,15.8,86,29.62,10.0,Calm,Calm,-,N/A,,Overcast,0,2014-02-15 08:35:00
3:55 AM,19.4,15.8,86,29.62,10.0,Calm,Calm,-,N/A,,Overcast,0,2014-02-15 08:55:00
4:15 AM,19.4,15.8,86,29.63,10.0,Calm,Calm,-,N/A,,Overcast,0,2014-02-15 09:15:00
4:35 AM,19.4,17.6,93,29.63,10.0,Calm,Calm,-,N/A,,Overcast,0,2014-02-15 09:35:00
4:55 AM,19.4,15.8,86,29.62,10.0,Calm,Calm,-,N/A,,Overcast,0,2014-02-15 09:55:00
5:15 AM,19.4,15.8,86,29.63,10.0,Calm,Calm,-,N/A,,Overcast,0,2014-02-15 10:15:00
5:35 AM,19.4,15.8,86,29.64,10.0,NW,3.5,-,N/A,,Overcast,310,2014-02-15 10:35:00
5:55 AM,19.4,15.8,86,29.64,7.0,Calm,Calm,-,N/A,,Overcast,0,2014-02-15 10:55:00
6:15 AM,19.4,15.8,86,29.64,5.0,Calm,Calm,-,N/A,,Overcast,0,2014-02-15 11:15:00
6:35 AM,19.4,15.8,86,29.64,5.0,NW,3.5,-,N/A,,Overcast,310,2014-02-15 11:35:00
6:55 AM,19.4,17.6,93,29.66,4.0,WNW,3.5,-,N/A,Snow,Light Snow,300,2014-02-15 11:55:00
7:15 AM,19.4,17.6,93,29.66,3.0,NW,3.5,-,N/A,Snow,Light Snow,310,2014-02-15 12:15:00
7:35 AM,19.4,17.6,93,29.68,5.0,Calm,Calm,-,N/A,,Overcast,0,2014-02-15 12:35:00
7:55 AM,19.4,17.6,93,29.68,3.0,NW,3.5,-,N/A,,Overcast,310,2014-02-15 12:55:00
8:15 AM,19.4,17.6,93,29.70,1.8,WNW,3.5,-,N/A,Snow,Light Snow,300,2014-02-15 13:15:00
8:35 AM,19.4,19.4,100,29.70,1.8,NW,6.9,-,N/A,Snow,Light Snow,310,2014-02-15 13:35:00
8:55 AM,19.4,19.4,100,29.71,1.0,NW,8.1,-,N/A,Snow,Light Snow,310,2014-02-15 13:55:00
9:15 AM,19.4,17.6,93,29.71,1.5,NW,5.8,-,N/A,Snow,Light Snow,310,2014-02-15 14:15:00
9:35 AM,19.4,17.6,93,29.72,1.8,NW,4.6,-,N/A,Snow,Light Snow,310,2014-02-15 14:35:00
9:55 AM,21.2,17.6,86,29.72,3.0,NW,5.8,-,N/A,Snow,Light Snow,310,2014-02-15 14:55:00
10:15 AM,21.2,17.6,86,29.72,4.0,WNW,5.8,-,N/A,Snow,Light Snow,300,2014-02-15 15:15:00
10:35 AM,21.2,17.6,86,29.74,4.0,WNW,3.5,-,N/A,Snow,Light Snow,300,2014-02-15 15:35:00
10:55 AM,23.0,17.6,80,29.74,5.0,West,4.6,-,N/A,Snow,Light Snow,280,2014-02-15 15:55:00
11:15 AM,23.0,17.6,80,29.74,7.0,WNW,5.8,-,N/A,,Overcast,290,2014-02-15 16:15:00
11:35 AM,23.0,17.6,80,29.74,3.0,WNW,8.1,-,N/A,Snow,Light Snow,300,2014-02-15 16:35:00
11:55 AM,23.0,17.6,80,29.75,1.2,WNW,8.1,-,N/A,Snow,Light Snow,300,2014-02-15 16:55:00
12:15 PM,23.0,15.8,74,29.74,4.0,WNW,6.9,-,N/A,Snow,Light Snow,300,2014-02-15 17:15:00
12:35 PM,21.2,17.6,86,29.74,0.8,NW,6.9,-,N/A,Snow,Light Snow,310,2014-02-15 17:35:00
12:55 PM,23.0,15.8,74,29.73,7.0,NW,5.8,-,N/A,Snow,Light Snow,320,2014-02-15 17:55:00
1:15 PM,23.0,14.0,68,29.73,10.0,WNW,8.1,17.3,N/A,,Overcast,290,2014-02-15 18:15:00
1:35 PM,23.0,12.2,63,29.72,7.0,WNW,11.5,17.3,N/A,Snow,Light Snow,290,2014-02-15 18:35:00
1:55 PM,23.0,12.2,63,29.73,10.0,West,8.1,18.4,N/A,Snow,Light Snow,280,2014-02-15 18:55:00
2:15 PM,23.0,12.2,63,29.74,7.0,NW,8.1,17.3,N/A,Snow,Light Snow,320,2014-02-15 19:15:00
2:35 PM,23.0,12.2,63,29.74,10.0,NW,5.8,16.1,N/A,Snow,Light Snow,320,2014-02-15 19:35:00
2:55 PM,21.2,12.2,68,29.74,10.0,WNW,9.2,-,N/A,,Overcast,290,2014-02-15 19:55:00
3:15 PM,21.2,10.4,63,29.75,10.0,WNW,10.4,16.1,N/A,,Overcast,300,2014-02-15 20:15:00
3:35 PM,21.2,10.4,63,29.76,7.0,WNW,9.2,-,N/A,Snow,Light Snow,300,2014-02-15 20:35:00
3:55 PM,21.2,12.2,68,29.77,10.0,WNW,5.8,-,N/A,,Overcast,290,2014-02-15 20:55:00
4:15 PM,19.4,12.2,74,29.78,3.0,NW,9.2,18.4,N/A,Snow,Light Snow,310,2014-02-15 21:15:00
4:35 PM,17.6,10.4,73,29.78,7.0,WNW,10.4,18.4,N/A,Snow,Light Snow,300,2014-02-15 21:35:00
4:55 PM,19.4,12.2,74,29.78,2.0,WNW,3.5,-,N/A,Snow,Light Snow,290,2014-02-15 21:55:00
5:15 PM,17.6,10.4,73,29.79,7.0,WNW,10.4,-,N/A,Snow,Light Snow,290,2014-02-15 22:15:00
5:35 PM,14.0,8.6,79,29.80,10.0,WNW,6.9,18.4,N/A,Snow,Light Snow,290,2014-02-15 22:35:00
5:55 PM,14.0,8.6,79,29.81,5.0,WNW,5.8,-,N/A,Snow,Light Snow,290,2014-02-15 22:55:00
6:15 PM,12.2,8.6,85,29.82,10.0,WNW,9.2,16.1,N/A,Snow,Light Snow,300,2014-02-15 23:15:00
6:35 PM,12.2,8.6,85,29.82,7.0,WNW,6.9,-,N/A,Snow,Light Snow,300,2014-02-15 23:35:00
6:55 PM,12.2,6.8,79,29.82,10.0,WNW,12.7,17.3,N/A,,Overcast,300,2014-02-15 23:55:00
7:15 PM,12.2,8.6,85,29.84,7.0,WNW,6.9,-,N/A,Snow,Light Snow,300,2014-02-16 00:15:00
7:35 PM,12.2,6.8,79,29.84,4.0,West,6.9,-,N/A,Snow,Light Snow,280,2014-02-16 00:35:00
7:55 PM,12.2,6.8,79,29.84,3.0,West,4.6,-,N/A,Snow,Light Snow,280,2014-02-16 00:55:00
8:15 PM,10.4,6.8,85,29.85,3.0,WNW,6.9,-,N/A,Snow,Light Snow,300,2014-02-16 01:15:00
8:35 PM,10.4,6.8,85,29.86,3.0,West,8.1,-,N/A,Snow,Light Snow,270,2014-02-16 01:35:00
8:55 PM,10.4,6.8,85,29.86,2.5,WNW,5.8,16.1,N/A,Snow,Light Snow,290,2014-02-16 01:55:00
9:15 PM,10.4,6.8,85,29.87,1.5,West,6.9,-,N/A,Snow,Light Snow,280,2014-02-16 02:15:00
9:35 PM,10.4,6.8,85,29.87,2.0,WNW,8.1,-,N/A,Snow,Light Snow,290,2014-02-16 02:35:00
9:55 PM,10.4,5.0,79,29.87,2.0,West,4.6,-,N/A,Snow,Light Snow,270,2014-02-16 02:55:00
10:15 PM,8.6,5.0,85,29.88,3.0,West,3.5,-,N/A,Snow,Light Snow,280,2014-02-16 03:15:00
10:35 PM,8.6,5.0,85,29.88,2.5,West,4.6,-,N/A,Snow,Light Snow,280,2014-02-16 03:35:00
10:55 PM,8.6,5.0,85,29.88,2.5,West,4.6,-,N/A,Snow,Light Snow,280,2014-02-16 03:55:00
11:15 PM,8.6,5.0,85,29.87,2.0,WNW,9.2,18.4,N/A,Snow,Light Snow,290,2014-02-16 04:15:00
11:35 PM,8.6,5.0,85,29.86,2.0,WNW,6.9,-,N/A,Snow,Light Snow,290,2014-02-16 04:35:00
11:55 PM,8.6,5.0,85,29.86,1.5,WNW,4.6,-,N/A,Snow,Light Snow,290,2014-02-16 04:55:00